STARLINK-1305, 45377

Orbit data source: Space-Track

STARLINK-1305, 45377 is a payload satellite owned by SpaceX/Seattle (US) in LEO that was launched on Wed, 18 Mar 2020 UTC via an FALCON 9 launch vehicle from the Air Force Eastern Test Range (AFETR). Payload-class satellites include a variety of spacecraft equipped with specific instruments for various scientific and technological missions. These include communications satellites like Starlink; space stations such as the ISS; scientific satellites like the Hubble; Earth observation satellites from companies like Planet Labs, Umbra, and HawkEye 360; GPS; miniature CubeSats for education and research; and military/defense satellites.

Loading next visibility...
Identifier
45377, 2020-019T
Orbit
LEO
Country
Flag of USUS
Related business
Manufacturer
SpaceX/Seattle
Mission
Partially operational Commercial Communications
Bus & Motor
STARLINK, Unknown motor
Mass
260 kg wet, ~248 kg dry
Launch date (UTC)
2020-03-18 (6 years ago)
Launch vehicle
FALCON 9
Launch site
Air Force Eastern Test Range (AFETR)
Object type
Payload
Rocket body
Debris
Shape & HBR
Box + 1 Pan, 10.1 m
Radar Cross Section
13.562 m², Large (>1 m²)

Expand to show TLE details & history
Last TLE update: 21 hours ago

TLE from 21 hours ago
0 STARLINK-1305
1 45377U 20019T   26125.64424415  .00050523  00000-0  51343-3 0  9998
2 45377  53.0385 215.2843 0009475 326.4043  33.6369 15.64648708339109
Epoch: 2026-05-05T15:27Z
TLE epoch observation values (Epoch: 2026-05-05T15:27:42.694Z)
Latitude
-0.00005°
Longitude
119.84024°
Altitude
369.824 km
Speed
7.692 km/s
True Right ascension
14h 21m 08s
True Declination
0° 00' 00"
Sunlit
Object was in full shadow at epoch
Visualization orbit readout
Latitude
Unknown
Longitude
Unknown
Altitude
Unknown
Speed
Unknown
Apparent Right ascension
Unknown
Apparent Declination
Unknown
Sunlit
N/A
Visualization observer readout
Local Sidereal Time
20:01:40
Azimuth
Unknown
Elevation
Unknown
Doppler factor
Unknown
Orbital elements
Apogee altitude
380.927 km
Perigee altitude
368.131 km
Semi-major axis
6,752.666 km
Eccentricity
0.00095
Inclination
53.0385°
RAAN
215.2843°
Arg. of periapsis
326.4043°
True anomaly
33.6971°
Mean anomaly
33.6369°
Eccentric anomaly
33.667°
Mean motion
3.91138 °/min
Orbital period
92.04 mins
BSTAR
0.00051343
Loading maneuver chart data...
Computing Atmospheric mass density...
Loading historical data...
Loading historical data...
Loading historical data...
Loading historical data...
Loading historical data...
Loading historical data...
Loading historical data...

Documentation

Showing up to 5 results
|